SCP
0 0 0 0 0 0 0 0 0 0 0 1 1 1 1 0 0 0 0 0 0 0 0 0 0 0 0 0 0 0 0 0 0 0 0 0 0 0
0 0 0 0 0 0 0 0 0 0 0 0 1 1 1 0 0 0 0 0 0 0 0 0 0 0 0 0 0 0 0 0 0 0 0 0 0 0
0 0 0 0 0 0 0 0 0 0 0 0 0 1 1 0 0 0 0 0 0 0 0 0 0 0 0 0 0 0 0 0 0 0 0 0 0 0
0 0 0 0 0 0 0 0 0 0 0 0 0 0 0 0 0 0 0 0 0 0 0 0 0 0 0 0 0 0 0 0 0 0 0 0 0 0
0 0 0 0 0 0 0 0 0 0 0 0 0 0 0 0 0 0 0 0 0 0 0 0 0 0 0 0 0 0 0 0 0 0 0 0 0 0
0 0 0 0 0 0 0 0 0 0 0 0 0 0 0 0 0 0 0 0 0 0 0 0 0 0 0 0 0 0 0 0 0 0 0 0 0 0
0 0 0 0 0 0 0 0 0 0 0 0 0 0 0 0 0 0 0 0 0 0 0 0 0 0 0 0 0 0 0 0 0 0 0 0 0 0
0 0 0 0 0 0 0 0 0 0 0 0 0 0 0 0 0 0 0 0 0 0 0 0 0 0 0 0 0 0 0 0 0 0 0 0 0 0
0 0 0 0 0 0 0 0 0 0 0 0 0 0 0 0 0 0 0 0 0 0 0 0 0 0 0 0 0 0 0 0 0 0 0 0 0 0
0 0 0 0 0 0 0 0 0 0 0 0 0 0 0 0 0 0 0 0 0 0 0 0 0 0 0 0 0 0 0 0 0 0 0 0 0 0
0 0 0 0 0 0 0 0 0 0 0 0 0 0 0 0 0 0 0 0 0 0 0 0 0 0 0 0 0 0 0 0 0 0 0 0 0 0
0 0 0 0 0 0 0 0 0 0 0 0 0 0 0 0 0 0 0 0 0 0 0 0 0 0 0 0 0 0 0 0 0 0 0 0 0 0
0 0 0 0 0 0 0 0 0 0 0 0 0 0 0 0 0 0 0 0 0 0 0 0 0 0 0 0 0 0 0 0 0 0 0 0 0 0
0 0 0 0 0 0 0 0 0 0 0 0 0 0 0 0 0 0 0 0 0 0 0 0 0 0 0 0 0 0 0 0 0 0 0 0 0 0
0 0 0 0 0 0 0 0 0 0 0 0 0 0 0 0 0 0 0 0 0 0 0 0 0 0 0 0 0 0 0 0 0 0 0 0 0 0
0 0 0 0 0 0 0 0 0 0 0 0 0 0 0 0 0 0 0 0 0 0 0 0 0 0 0 0 0 0 0 0 0 0 0 0 0 0
0 0 0 0 0 0 0 0 0 0 0 0 0 0 0 0 0 0 0 0 0 0 0 0 0 0 0 0 0 0 0 0 0 0 0 0 0 0
0 0 0 0 0 0 0 0 0 0 0 0 0 0 0 0 0 0 0 0 0 0 0 0 0 0 0 0 0 0 0 0 0 0 0 0 0 0
0 0 0 0 0 0 0 0 0 0 0 0 0 0 0 0 0 0 0 0 0 0 0 0 0 0 0 0 0 0 0 0 0 0 0 0 0 0
0 0 0 0 0 0 0 0 0 0 0 0 0 0 0 0 0 0 0 0 0 0 0 0 0 0 0 0 0 0 0 0 0 0 0 0 0 0
0 0 0 0 0 0 0 0 0 0 0 0 0 0 0 0 0 0 0 0 0 0 0 0 0 0 0 0 0 0 0 0 0 0 0 0 0 0
0 0 0 0 0 0 0 0 0 0 0 0 0 0 0 0 0 0 0 0 0 0 0 0 0 0 0 0 0 0 0 0 0 0 0 0 0 0
0 0 0 0 0 0 0 0 0 0 0 0 0 0 0 0 0 0 0 0 0 0 0 0 0 0 0 0 0 0 0 0 0 0 0 0 0 0
Wind_Speed
1 1 1 1 1 2 2 2 3 2 2 2 1 1 1 2 3 2 3 5 6 6 6 6 6 7 8 8 9 8 8 8 8 8 8 8 7 7
1 0 0 1 1 1 2 2 2 2 2 1 1 1 1 2 4 3 3 5 6 5 6 6 6 7 7 8 8 8 7 7 7 6 6 6 6 5
1 0 1 0 0 1 1 1 2 2 2 1 1 1 1 2 2 2 3 3 3 5 6 6 6 6 6 7 7 6 6 6 5 5 5 5 5 5
1 1 1 0 0 0 1 1 2 2 2 2 1 1 2 2 3 3 2 3 3 5 6 5 5 5 5 5 5 4 4 4 3 3 4 4 4 4
2 1 1 0 0 0 1 1 1 1 2 3 2 1 2 2 3 3 3 3 2 3 4 4 4 4 3 3 3 3 3 3 2 2 3 3 3 3
2 1 1 0 1 1 1 1 2 3 3 3 3 2 2 2 2 2 2 2 2 2 2 2 2 1 1 2 3 3 3 4 4 4 4 4 4 4
3 3 2 2 1 1 1 2 3 3 3 4 3 2 2 3 2 1 2 2 1 1 1 1 1 0 0 1 3 4 5 5 5 5 5 6 6 6
3 3 3 3 4 3 3 4 4 5 5 4 3 4 3 3 3 3 3 2 1 1 0 0 0 1 1 2 4 5 5 6 6 7 7 7 7 8
2 3 3 4 4 4 5 6 5 4 4 4 5 4 4 4 5 4 3 2 1 1 1 0 0 1 2 2 5 6 7 7 7 8 8 8 9 9
2 2 2 3 3 3 4 5 4 4 3 2 3 3 3 4 4 3 3 2 1 1 1 0 1 1 2 2 4 6 6 7 7 8 9 9 9 9
3 3 2 3 4 4 5 5 5 4 4 5 3 3 4 4 5 4 3 2 1 0 1 1 1 1 2 2 3 5 6 7 8 9 9 9 9 8
3 3 4 3 3 3 3 4 4 2 3 4 4 4 3 4 5 3 3 2 1 1 2 2 1 1 1 1 2 2 3 6 8 9 9 10 9 6
2 2 2 3 3 3 3 3 3 3 3 3 3 2 2 2 1 2 2 2 2 2 2 3 1 1 1 2 2 2 3 3 3 4 7 9 9 7
1 2 2 3 3 3 2 3 4 4 3 3 2 1 1 1 0 1 2 3 3 4 3 3 2 2 2 2 3 2 3 3 3 4 4 4 7 10
1 1 2 3 3 2 3 3 3 2 2 2 1 0 0 1 1 0 0 1 2 4 4 5 4 3 3 3 3 3 3 3 3 3 3 4 4 4
2 2 3 3 3 2 2 2 1 1 1 1 1 0 0 0 0 0 0 1 1 1 1 3 5 5 3 4 4 4 4 4 3 4 4 5 5 5
1 1 2 2 2 2 1 1 0 1 1 1 1 1 1 0 0 0 0 0 1 1 2 1 2 3 6 4 4 5 5 4 5 4 3 5 6 6
1 1 1 1 1 1 1 1 0 0 0 1 1 1 1 1 1 1 1 1 1 2 2 2 2 1 2 4 8 6 5 4 4 4 4 4 6 6
0 1 1 1 1 1 1 1 1 1 1 1 1 1 1 1 1 1 1 1 2 3 3 2 2 2 3 5 4 7 5 5 4 4 4 5 6 7
1 2 2 2 2 2 2 2 2 2 1 1 2 2 2 2 2 2 2 3 3 3 3 3 3 3 4 4 5 4 7 6 5 5 6 5 6 8
2 3 3 3 3 3 3 3 3 2 2 2 3 3 3 2 3 3 3 4 4 3 4 5 4 4 3 3 4 5 5 7 9 6 6 6 6 6
4 4 4 4 4 4 3 3 3 3 3 3 3 3 3 3 4 5 4 4 4 4 5 5 4 3 3 4 7 8 7 7 7 12 13 10 6 6
5 4 4 4 4 4 4 4 5 4 4 4 4 4 4 4 4 4 5 5 5 5 5 5 4 3 4 5 7 7 10 9 7 6 7 9 15 17
Wind_Direction
262 243 247 260 218 202 188 187 179 195 219 187 164 84 86 87 77 78 80 80 83 84 87 88 90 96 101 108 112 113 117 118 123 129 135 139 141 143
315 193 268 273 269 217 194 202 192 184 197 173 157 103 94 90 80 79 77 81 80 90 94 92 92 96 102 107 111 115 118 121 127 133 136 139 141 147
343 306 284 295 247 244 195 183 181 171 178 161 105 103 103 101 82 74 75 75 79 85 92 96 101 104 105 106 109 113 116 123 131 138 146 153 162 171
335 344 344 25 83 198 167 170 178 177 168 165 134 126 108 116 103 92 83 84 86 83 86 91 96 99 104 108 113 118 126 131 135 142 158 171 179 182
343 337 322 348 35 133 158 160 164 154 152 151 140 106 105 116 100 88 85 75 79 90 87 90 96 106 117 129 140 151 157 159 163 172 178 184 190 194
354 342 333 283 217 175 157 153 141 130 133 139 136 124 118 112 116 121 102 79 69 68 66 73 83 98 142 176 183 186 191 197 202 207 210 213 217 223
10 6 6 20 76 154 163 152 144 139 140 145 145 138 139 143 148 142 127 107 73 51 51 52 57 60 251 215 212 207 208 211 214 218 222 227 232 236
13 5 15 33 48 64 100 124 145 154 157 157 156 158 161 158 145 143 139 130 125 107 72 13 68 256 247 232 223 221 223 224 224 227 231 234 238 242
15 10 30 36 46 68 79 84 86 102 142 161 160 169 173 173 156 154 157 144 153 157 137 311 273 260 256 241 231 230 231 233 234 235 236 239 242 246
21 26 45 42 52 77 86 80 75 72 89 125 158 166 165 162 160 154 146 128 107 138 179 228 259 266 276 260 242 236 236 238 240 242 242 243 245 249
26 36 48 59 57 80 90 86 75 62 70 85 106 123 134 146 147 135 138 132 100 137 184 218 258 286 281 270 254 240 243 245 247 249 248 247 247 251
26 28 39 54 67 82 97 103 96 80 82 83 81 82 107 130 152 163 163 152 142 207 185 196 216 261 287 264 266 259 251 252 254 255 253 253 250 247
30 11 11 34 65 76 91 101 113 114 101 96 90 87 89 103 136 171 188 188 186 225 190 185 206 204 244 287 287 268 259 264 265 258 251 250 246 231
25 353 359 34 67 88 94 99 107 108 104 100 93 84 83 80 112 222 216 219 227 237 212 192 218 209 221 266 282 283 273 260 256 264 269 265 254 238
17 20 26 49 72 80 85 101 112 111 109 104 99 84 281 281 294 296 231 222 241 240 225 208 211 213 221 245 266 274 290 286 261 259 270 271 270 261
19 22 39 54 64 67 71 76 88 133 147 148 167 208 231 203 176 69 30 6 341 317 234 212 212 207 225 236 245 263 263 269 279 278 280 278 267 253
18 34 39 40 37 33 30 39 69 122 144 167 181 209 242 264 272 193 182 259 284 298 310 306 223 228 236 241 250 256 264 267 267 276 276 282 278 269
73 47 29 23 8 339 326 337 329 248 222 212 220 229 243 256 271 237 198 220 252 271 281 295 310 292 253 237 222 251 268 268 276 272 259 271 283 283
67 301 284 280 274 272 263 255 260 258 236 238 241 246 243 246 244 256 251 242 257 267 273 268 261 263 290 300 272 217 235 271 279 279 266 257 272 283
228 253 265 265 259 258 254 249 259 265 248 245 248 248 242 242 247 250 248 249 260 271 278 269 249 239 248 279 288 277 233 242 260 273 281 278 272 274
259 260 260 260 257 254 252 246 245 253 256 252 251 247 241 235 245 252 254 253 255 260 269 276 273 251 249 256 268 274 268 234 227 249 275 285 289 288
255 257 260 256 252 251 249 246 243 247 249 247 250 249 242 235 243 251 253 253 254 257 267 278 284 265 236 250 274 285 288 288 261 241 241 237 260 278
251 251 254 256 249 243 240 241 243 247 245 244 247 247 245 243 246 247 252 254 259 265 271 280 282 268 262 266 276 282 285 289 292 293 282 253 237 246